FW1036 Weather Reports


Display with metric or nautical units.
time (UTC)temp
F
wind
direction
speed
MPH
gust
MPH
rain 1hr
in
rain 24hr
in
rain mn
in
humidity
%
barometer
mb
20260906053024 61 328 1.0 5.0 0.00 0.00 0.00 90 1015.8
20260906051527 61 360 2.0 4.0 0.00 0.00 0.00 90 1015.8
20260906050023 61 10 3.0 5.0 0.00 0.00 0.00 90 1015.6
20260906044521 60 24 2.0 5.0 0.00 0.00 0.00 90 1015.5
20260906043016 60 5 3.0 6.0 0.00 0.00 0.00 89 1015.4
20260906041521 60 5 3.0 5.0 0.00 0.00 0.00 89 1015.4
20260906040012 60 5 2.0 8.0 0.00 0.00 0.00 88 1015.3
20260906034511 61 29 3.0 5.0 0.00 0.00 0.00 88 1015.2
20260906033011 61 360 4.0 6.0 0.00 0.00 0.00 87 1015.2
20260906031510 61 39 3.0 6.0 0.00 0.00 0.00 87 1015.3
20260906030010 61 350 2.0 6.0 0.00 0.00 0.00 86 1015.2
20260906024509 61 20 3.0 8.0 0.00 0.00 0.00 86 1015.1
20260906023018 61 5 4.0 8.0 0.00 0.00 0.00 85 1015.2
20260906021513 61 5 3.0 8.0 0.00 0.00 0.00 85 1015.3
20260906020009 61 360 3.0 6.0 0.00 0.00 0.00 84 1015.1
20260906014507 61 20 2.0 4.0 0.00 0.00 0.00 83 1015.3
20260906013005 61 355 2.0 6.0 0.00 0.00 0.00 83 1015.3
20260906011503 61 5 2.0 4.0 0.00 0.00 0.00 83 1015.1
20260906010002 61 344 2.0 6.0 0.00 0.00 0.00 82 1014.8
20260906004600 62 355 3.0 6.0 0.00 0.00 0.00 81 1014.8
20260906003059 62 15 2.0 9.0 0.00 0.00 0.00 79 1015.2
20260906001559 63 5 3.0 6.0 0.00 0.00 0.00 78 1015.0
20260906000058 64 341 1.0 8.0 0.00 0.00 0.00 76 1015.0
20260905234611 64 360 2.0 10.0 0.00 0.00 0.00 75 1014.9
20260905233056 65 345 3.0 11.0 0.00 0.00 0.00 73 1014.9
20260905231556 66 338 6.0 12.0 0.00 0.00 0.00 70 1014.9
20260905230123 66 12 6.0 14.0 0.00 0.00 0.00 70 1014.8
20260905224554 67 5 7.0 13.0 0.00 0.00 0.00 71 1014.9
20260905223054 68 30 10.0 15.0 0.00 0.00 0.00 70 1014.8
20260905221557 68 41 8.0 14.0 0.00 0.00 0.00 68 1014.7
20260905220053 69 26 7.0 12.0 0.00 0.00 0.00 67 1014.6
20260905214552 69 31 10.0 16.0 0.00 0.00 0.00 66 1014.6
20260905213051 69 38 10.0 16.0 0.00 0.00 0.00 67 1014.5
20260905211556 70 360 9.0 14.0 0.00 0.00 0.00 70 1014.6
20260905210049 70 30 10.0 15.0 0.00 0.00 0.00 69 1014.8
20260905204548 71 36 11.0 15.0 0.00 0.00 0.00 67 1014.7
20260905203055 71 27 10.0 16.0 0.00 0.00 0.00 66 1014.7
20260905201548 71 47 11.0 15.0 0.00 0.00 0.00 67 1014.6
20260905200050 72 42 11.0 15.0 0.00 0.00 0.00 67 1014.5
20260905194546 72 45 12.0 16.0 0.00 0.00 0.00 65 1014.5
20260905193104 72 57 9.0 13.0 0.00 0.00 0.00 68 1014.6
20260905191545 72 61 11.0 15.0 0.00 0.00 0.00 66 1014.6
20260905190045 72 51 10.0 16.0 0.00 0.00 0.00 67 1014.7
20260905184544 72 5 10.0 17.0 0.00 0.00 0.00 67 1014.7
20260905183046 72 65 10.0 15.0 0.00 0.00 0.00 68 1014.7
20260905181542 72 59 7.0 14.0 0.00 0.00 0.00 70 1014.7
20260905180042 73 58 9.0 16.0 0.00 0.00 0.00 71 1014.7
20260905174540 73 16 8.0 14.0 0.00 0.00 0.00 71 1014.6
20260905173042 73 49 9.0 14.0 0.00 0.00 0.00 69 1014.6
20260905171539 73 67 9.0 12.0 0.00 0.00 0.00 68 1014.6
20260905170038 73 47 6.0 13.0 0.00 0.00 0.00 66 1014.7
20260905164535 73 44 9.0 12.0 0.00 0.00 0.00 68 1014.7
20260905163034 73 101 5.0 12.0 0.00 0.00 0.00 69 1014.7
20260905161532 72 58 8.0 11.0 0.00 0.00 0.00 66 1014.7
20260905160031 72 51 10.0 12.0 0.00 0.00 0.00 63 1014.7
20260905154527 73 14 6.0 10.0 0.00 0.00 0.00 69 1014.6
20260905153026 73 67 5.0 10.0 0.00 0.00 0.00 71 1014.5
20260905151522 72 68 6.0 12.0 0.00 0.00 0.00 69 1014.4
20260905150019 71 58 8.0 13.0 0.00 0.00 0.00 69 1014.4
20260905144519 71 100 6.0 11.0 0.00 0.00 0.00 73 1014.4
20260905143013 71 53 6.0 10.0 0.00 0.00 0.00 74 1014.3
20260905141511 70 58 5.0 11.0 0.00 0.00 0.00 75 1014.4
20260905140007 70 30 7.0 12.0 0.00 0.00 0.00 77 1014.3
20260905134502 69 61 7.0 12.0 0.00 0.00 0.00 78 1014.3
20260905133058 69 57 6.0 11.0 0.00 0.00 0.00 78 1014.2
20260905131553 69 54 6.0 12.0 0.00 0.00 0.00 79 1014.2
20260905130049 68 73 4.0 6.0 0.00 0.00 0.00 83 1014.2
20260905124547 66 58 2.0 5.0 0.00 0.01 0.00 84 1014.2
20260905123048 66 50 4.0 10.0 0.00 0.01 0.00 83 1014.1
20260905121541 66 69 1.0 5.0 0.00 0.01 0.00 84 1014.1
20260905120037 65 47 3.0 5.0 0.00 0.01 0.00 85 1013.9
20260905114534 65 44 4.0 7.0 0.00 0.01 0.00 86 1013.6
20260905113034 64 66 2.0 5.0 0.00 0.01 0.00 88 1013.6
20260905111531 64 55 3.0 6.0 0.00 0.01 0.00 88 1013.4
20260905110029 64 43 3.0 5.0 0.00 0.01 0.00 87 1013.4
20260905104528 64 62 4.0 10.0 0.00 0.01 0.00 87 1013.1
20260905103034 64 37 5.0 9.0 0.00 0.01 0.00 87 1013.2
20260905101530 65 28 5.0 8.0 0.00 0.01 0.00 87 1013.3
20260905100026 65 26 4.0 6.0 0.00 0.01 0.00 87 1013.5
20260905094526 65 48 4.0 5.0 0.00 0.01 0.00 87 1013.6
20260905093025 65 50 3.0 5.0 0.00 0.01 0.00 87 1013.6
20260905091524 65 36 4.0 6.0 0.00 0.01 0.00 88 1013.4
20260905090032 65 24 3.0 4.0 0.00 0.01 0.00 90 1013.2
20260905084522 65 40 1.0 3.0 0.00 0.01 0.00 91 1013.3
20260905083021 65 40 1.0 3.0 0.00 0.01 0.00 91 1013.4
20260905081522 65 48 2.0 6.0 0.00 0.01 0.00 91 1013.1
20260905080021 65 34 3.0 5.0 0.00 0.01 0.00 92 1013.1
20260905074519 65 36 3.0 5.0 0.00 0.01 0.00 92 1012.8
20260905073019 65 13 2.0 4.0 0.00 0.01 0.00 92 1012.8
20260905071519 65 39 1.0 3.0 0.00 0.01 0.00 92 1012.6
20260905070019 65 39 2.0 6.0 0.00 0.01 0.00 92 1012.7
20260905064513 65 36 3.0 4.0 0.00 0.01 0.00 92 1013.1
20260905063011 63 46 2.0 5.0 0.00 0.01 0.00 91 1012.8
20260905061510 63 18 0.0 0.0 0.00 0.01 0.00 91 1012.9
20260905060009 63 19 0.0 2.0 0.00 0.01 0.00 91 1013.2
20260905054511 64 28 1.0 2.0 0.00 0.01 0.00 90 1013.2